Regional Weather Roundup
Issued by NWS

Home | Current Version | Previous Version | Text Only | Print | Product List | Glossary Off
Versions: 1 2 3 4 5 6 7 8 9 10 11 12 13 14 15 16 17 18 19 20 21 22 23 24 25 26 27 28 29 30 31 32 33 34 35 36 37 38 39 40 41 42 43 44 45 46 47 48 49 50

000
ASUS43 KDMX 282307
RWRIA

WEATHER ROUNDUP FOR IOWA
NATIONAL WEATHER SERVICE DES MOINES IA
600 PM CDT MON JUL 28 2014

NOTE: "FAIR" INDICATES FEW OR NO CLOUDS BELOW 12,000 FEET WITH NO
SIGNIFICANT WEATHER AND/OR OBSTRUCTIONS TO VISIBILITY.

* - THESE STATIONS ARE NOT NWS STATIONS...THUS NOT UNDER NWS
QUALITY CONTROL.  THEY ALSO DO NOT REPORT WEATHER SUCH
AS PRECIPITATION OR FOG.

IAZ001>003-012>014-020>022-031>034-043>046-290000-
   NORTHWEST IOWA

CITY           SKY/WX    TMP DP  RH WIND       PRES   REMARKS
CARROLL *      PTSUNNY   72  61  68 NE9       30.18S
CHEROKEE *     PTSUNNY   72  57  60 N9        30.20S
DENISON *      PTSUNNY   75  59  57 N9        30.17F
LE MARS *      SUNNY     73  57  56 N5        30.21S
ORANGE CITY *  SUNNY     75  54  46 NE6       30.21F
SHELDON *      PTSUNNY   72  57  60 N8        30.20F
SIOUX CITY     SUNNY     75  56  51 NW8       30.20F
SPENCER        MOSUNNY   74  56  53 N12       30.20F
STORM LAKE *   MOSUNNY   72  61  68 N9        30.21F
$$

IAZ055>058-069>071-079>083-090>094-290000-
   SOUTHWEST IOWA

CITY           SKY/WX    TMP DP  RH WIND       PRES   REMARKS
ATLANTIC *     MOSUNNY   75  57  53 N10       30.17F
AUDUBON *      MOSUNNY   79  61  53 NW5       30.19F HX  80
CLARINDA *     CLOUDY    77  59  53 VRB7      30.19F
COUNCIL BLFS * MOSUNNY   75  59  57 NW10      30.18F
CRESTON *      PTSUNNY   72  59  64 CALM      30.18F
HARLAN  *      SUNNY     73  59  60 NW12      30.22F
LAMONI         MOSUNNY   74  56  53 NW7       30.17F
RED OAK *      MOSUNNY   77  59  53 NW8       30.18F
SHENANDOAH *   MOSUNNY   77  59  53 VRB5      30.19F HAZE
$$

IAZ047>049-059>061-072>074-084-290000-
   CENTRAL IOWA

CITY           SKY/WX    TMP DP  RH WIND       PRES   REMARKS
AMES           CLOUDY    69  59  70 NE5       30.17F
ANKENY *       PTSUNNY   73  59  60 W7G14     30.16F
CHARITON *     CLOUDY    72  57  60 N5        30.17S
DES MOINES     PTSUNNY   73  59  61 W14       30.16F
GRINNELL*      PTSUNNY   72  57  60 NW5       30.16F
KNOXVILLE *    SUNNY     73  55  53 NW5       30.15F
MARSHALLTOWN   CLOUDY    72  58  61 NW6       30.15F
PELLA *        SUNNY     77  59  53 NW6       30.16F
PERRY *          N/A     72  63  73 CALM      30.17F
$$

IAZ004>006-015-016-023>025-035-036-290000-
   NORTH CENTRAL IOWA

CITY           SKY/WX    TMP DP  RH WIND       PRES   REMARKS
ALGONA *       MOSUNNY   72  54  53 N10       30.19S
CLARION *      PTSUNNY   73  54  49 N7G13     30.17F
ESTHERVILLE    SUNNY     71  55  56 N13       30.20F
FORT DODGE *   SUNNY     73  57  56 NW5       30.18F
MASON CITY     MOSUNNY   74  55  51 N13       30.18F
FOREST CITY *  PTSUNNY   72  54  53 N13       30.17F
IOWA FALLS *   PTSUNNY   73  54  49 NW8       30.17F
$$

IAZ007>011-017>019-026>030-037>042-050>054-066-290000-
   NORTHEAST IOWA

CITY           SKY/WX    TMP DP  RH WIND       PRES   REMARKS
CEDAR RAPIDS   PTSUNNY   73  53  49 NW9       30.13F
CHARLES CITY * PTSUNNY   72  55  56 NW9       30.17S
CLINTON *      CLOUDY    70  52  52 NW7       30.16F
DECORAH *      SUNNY     70  52  52 NW8       30.14F
DUBUQUE        PTSUNNY   70  52  52 N9        30.14F
MONTICELLO *   SUNNY     73  54  49 N8        30.13F
OELWEIN *      PTSUNNY   72  54  53 N8        30.16S
WATERLOO       CLOUDY    75  55  49 N6        30.14F
$$

IAZ064-065-067-068-078-290000-
   EAST CENTRAL IOWA

CITY           SKY/WX    TMP DP  RH WIND       PRES   REMARKS
DAVENPORT      SUNNY     72  52  49 N9        30.14F
IOWA CITY      CLOUDY    72  54  53 N6        30.15F
MT. PLEASANT * PTSUNNY   73  52  46 NW8       30.14F
MUSCATINE *    MOSUNNY   73  52  46 N9        30.13F
QUAD CITIES    MOSUNNY   73  50  44 NW7       30.12F
$$

IAZ062-063-075>077-085>089-095>099-290000-
   SOUTHEAST IOWA

CITY           SKY/WX    TMP DP  RH WIND       PRES   REMARKS
BURLINGTON     MOSUNNY   73  52  47 N10       30.13F
FAIRFIELD *    MOSUNNY   72  57  60 NW10      30.16S
FORT MADISON * SUNNY     73  54  49 N8        30.15S
KEOKUK *       SUNNY     73  55  53 N9        30.13F
OSKALOOSA *    PTSUNNY   73  59  60 N6        30.16F
CENTERVILLE *  SUNNY     72  57  60 N6        30.18S
OTTUMWA        CLOUDY    72  57  59 NW7       30.14F
WASHINGTON *   MOSUNNY   72  59  64 NW9       30.15S
$$

ABBREVIATIONS USED IN REMARKS
   TC - TEMPERATURES IN CELSIUS
  WCI - WIND CHILL INDEX
   HX - HEAT INDEX
  VSB - VISIBILITY
$$



USA.gov is the U.S. government's official web portal to all federal, state and local government web resources and services.